RH
12 14 18 21 22 23 23 23 23 23 23 22 20 18 16 14 12 12 12 12 12 12 13 13 13 12 12 11 11 10 10 9 9 9 9 9 9 9 9 9 9 9 9 9 9 10 10 10 10 11 11 11
13 17 21 24 25 25 25 24 24 23 21 19 16 14 13 12 13 14 15 15 16 16 17 18 18 18 17 16 15 14 12 11 10 10 10 10 10 10 9 8 8 8 8 8 8 8 8 9 9 9 10 10
15 20 25 27 27 27 26 25 23 20 17 14 13 13 14 16 17 18 18 18 18 19 19 20 20 21 21 20 20 19 18 16 14 13 12 12 13 14 14 13 11 9 8 8 7 8 8 8 8 8 9 10
17 24 28 29 29 27 25 22 19 16 14 14 15 17 19 20 20 20 20 21 21 21 21 21 21 21 21 21 21 21 21 21 20 18 15 13 12 13 15 17 18 17 14 11 10 9 9 8 8 8 9 10
21 28 31 30 29 26 22 18 15 14 16 18 21 23 23 23 24 24 24 24 24 24 23 23 22 22 21 20 20 20 20 21 22 22 21 18 15 12 10 11 14 18 20 19 17 15 13 12 11 10 10 11
24 31 32 30 28 23 18 15 15 18 21 24 25 26 26 26 25 25 25 25 25 24 24 23 23 22 21 20 20 20 20 20 20 22 23 23 21 19 14 10 7 8 12 17 20 21 20 18 16 15 14 13
26 32 33 31 26 19 15 15 19 23 25 27 28 28 27 26 25 25 25 25 25 25 24 25 25 24 23 22 22 21 22 22 21 21 22 23 24 23 21 17 12 8 6 7 10 14 17 20 20 20 19 18
27 33 34 30 23 17 16 19 24 27 28 29 29 28 25 24 24 25 26 26 25 26 26 26 26 26 25 25 24 23 23 23 23 23 22 23 23 24 24 22 18 13 9 6 4 5 7 10 14 16 18 19
29 35 34 28 20 18 20 25 28 30 30 31 29 27 24 23 24 25 25 26 26 26 25 26 26 25 25 26 26 25 24 24 23 23 22 22 22 22 22 21 19 16 13 10 7 5 4 3 4 6 8 10
31 36 33 26 20 22 26 29 31 32 32 31 30 27 24 23 23 24 25 25 25 25 24 24 24 24 24 24 25 26 26 25 23 22 19 16 15 16 16 15 15 14 13 10 8 6 5 4 3 3 3 3
33 37 31 24 23 27 30 32 32 33 32 31 30 27 25 24 25 25 25 25 25 26 26 26 26 26 25 25 26 27 27 26 24 21 17 12 8 7 8 8 8 8 9 8 7 6 5 5 4 4 3 2
35 35 29 25 28 31 33 33 33 33 32 31 29 27 25 25 26 26 25 26 27 29 30 30 30 29 28 28 28 28 27 26 24 20 16 11 7 5 4 4 5 4 5 5 5 6 5 5 5 4 4 3
36 33 29 29 31 34 34 35 34 33 33 31 29 27 27 27 27 27 27 29 31 32 33 32 32 30 29 29 28 26 25 23 21 18 13 9 6 4 4 3 4 4 4 4 4 4 4 4 5 5 4 4
36 33 31 32 34 36 36 35 35 34 33 31 30 30 30 30 29 29 30 32 33 34 33 33 32 31 30 28 27 23 19 16 14 12 9 6 4 3 3 3 3 3 3 3 3 4 4 4 4 5 5 5
36 34 34 36 37 37 36 36 35 34 33 32 32 32 32 32 32 32 33 34 34 33 33 33 32 32 31 28 26 20 12 9 7 6 5 4 3 2 2 2 2 2 2 2 3 3 3 3 4 4 4 4
37 36 37 38 38 38 37 37 36 35 35 35 35 34 34 33 33 33 33 34 33 33 33 32 32 31 30 28 25 17 8 5 4 3 3 2 2 2 2 2 1 1 1 2 2 2 2 2 3 3 3 3
38 39 39 40 39 39 38 38 37 38 38 38 36 35 34 33 33 33 34 34 33 34 33 31 30 28 27 25 20 12 5 4 3 2 2 2 2 2 2 1 1 1 1 1 1 1 1 1 2 2 2 2
41 41 42 41 41 41 41 41 41 41 39 38 36 35 34 34 35 35 36 34 32 31 29 27 25 22 21 17 12 7 4 3 3 3 2 2 2 2 2 1 1 1 1 1 1 1 1 1 1 1 1 1
44 44 44 44 44 43 43 43 41 40 38 37 36 35 36 37 37 37 36 31 25 22 20 18 16 14 11 9 7 4 4 3 3 3 2 2 2 2 2 2 1 1 1 1 1 1 1 1 1 1 1 1
47 47 47 46 45 45 43 42 40 39 38 37 37 38 38 38 37 36 32 25 18 14 12 10 8 7 6 5 5 4 3 3 3 3 3 3 2 2 2 2 2 1 1 1 1 1 1 1 1 1 1 1
50 49 48 47 45 44 43 42 42 41 40 39 39 38 37 36 36 33 28 21 14 10 8 6 6 5 5 5 4 4 4 3 3 3 3 3 3 2 2 2 2 2 2 1 1 1 1 1 1 1 1 1
49 48 46 45 45 44 44 44 44 43 41 40 39 38 36 36 34 28 23 17 11 8 7 6 6 6 6 5 5 4 4 4 4 4 3 3 3 3 2 2 2 2 2 2 1 2 1 1 1 1 1 1
48 47 46 46 45 45 45 44 44 43 41 40 38 35 32 27 23 18 14 11 9 8 8 8 7 7 7 6 6 5 5 4 4 4 4 4 4 3 3 2 2 2 2 2 2 2 2 2 2 1 2 1
49 48 48 47 46 46 46 46 46 44 40 37 32 26 21 16 12 10 10 9 9 9 9 9 9 9 9 8 7 6 5 5 5 5 5 5 4 4 4 3 3 3 2 2 2 2 2 2 2 2 2 2
51 50 49 48 48 48 48 48 47 41 34 27 20 16 12 11 10 10 10 11 11 11 11 11 11 11 11 10 9 8 7 6 6 6 5 5 5 5 5 4 4 4 3 3 2 2 2 2 2 2 2 2
53 52 51 51 50 50 50 47 42 34 24 18 13 12 11 11 12 12 13 13 13 13 13 14 13 13 13 12 11 10 9 8 7 6 6 6 6 6 6 5 5 5 4 4 3 3 2 2 3 3 3 3
56 55 54 54 53 51 49 41 32 23 16 13 12 12 14 14 15 16 16 16 16 16 16 16 16 16 15 14 13 12 10 9 8 7 7 7 7 7 7 6 6 6 5 5 5 5 3 3 3 2 3 3
58 58 57 55 51 46 40 32 23 17 14 14 15 16 17 18 18 18 18 18 18 18 18 18 18 18 17 17 16 14 13 11 9 8 8 8 9 9 9 8 7 7 7 7 7 7 6 5 4 3 3 3
60 59 57 53 47 39 30 23 17 15 15 16 17 17 16 15 14 14 14 15 16 16 16 16 17 17 17 18 18 17 16 14 12 10 9 10 11 11 10 10 9 8 8 9 9 9 9 8 6 4 4 3
59 57 53 46 40 34 26 20 16 14 15 15 14 12 9 7 6 7 7 8 9 9 9 9 10 11 12 14 17 18 18 17 16 13 11 11 12 12 13 13 11 10 11 11 10 10 12 12 11 8 7 5
54 48 40 32 27 23 20 17 16 15 13 10 8 5 3 3 3 3 3 3 4 4 4 4 5 5 7 9 12 15 17 18 18 17 15 14 13 14 15 15 13 13 14 14 12 13 14 14 14 14 12 10
Wind_Speed
23 22 21 20 20 20 19 19 19 19 19 19 20 20 19 19 19 19 20 20 20 21 21 22 23 24 25 26 27 28 29 30 30 31 31 31 32 32 32 32 32 33 33 32 32 31 31 31 32 32 31 31
22 21 20 19 19 18 18 18 19 19 20 20 20 19 19 19 18 19 19 19 20 20 20 21 22 23 24 25 26 27 28 28 29 30 31 32 32 32 32 32 32 33 33 33 33 33 32 32 32 33 32 32
21 20 19 18 18 18 18 19 19 20 20 20 19 19 18 17 17 17 18 19 19 20 20 21 22 23 24 25 25 26 27 27 28 29 30 31 31 32 32 32 32 33 33 33 33 33 33 33 33 33 33 33
19 19 18 18 18 18 19 19 20 20 20 19 17 17 16 16 16 17 17 18 19 19 20 21 22 24 25 26 26 27 27 28 28 28 28 29 30 31 32 32 32 33 33 33 33 33 33 33 33 33 33 33
18 18 18 18 18 19 20 20 20 20 18 17 15 15 15 15 15 16 16 17 18 19 20 21 23 24 25 26 27 28 29 29 29 29 29 29 29 30 31 31 32 33 33 33 33 33 33 33 34 34 34 33
18 18 18 19 19 20 20 20 19 19 17 15 15 15 15 15 15 16 17 18 19 20 21 22 24 25 25 26 27 28 29 30 31 31 31 30 30 30 30 31 32 33 33 34 34 34 34 34 34 34 34 34
19 19 19 20 20 20 20 19 19 18 17 16 16 16 15 16 16 17 19 20 21 22 23 24 26 27 27 28 28 29 29 30 31 32 33 32 32 32 31 31 31 32 33 33 34 34 34 34 34 34 34 34
20 20 21 21 21 20 20 19 18 18 17 17 17 17 17 18 19 20 21 22 23 24 25 26 27 29 30 30 31 31 30 31 31 32 33 33 34 34 33 33 32 32 32 33 34 34 34 34 35 35 35 35
22 22 22 21 20 20 20 19 18 18 18 18 18 19 20 21 22 23 24 25 26 27 28 29 30 32 33 34 34 34 33 33 33 33 33 33 34 34 34 34 34 34 33 33 33 34 34 34 34 35 36 36
23 23 22 21 20 19 19 19 19 19 19 19 20 22 23 24 25 26 27 28 29 30 32 33 34 35 36 37 37 37 37 36 35 34 34 34 34 34 34 35 35 35 34 34 34 34 34 34 34 34 35 36
23 22 21 20 20 19 19 20 20 21 21 22 23 25 26 27 28 29 29 30 32 33 35 36 37 38 39 40 40 40 40 38 38 37 36 35 35 35 35 35 35 35 35 35 34 34 34 34 34 34 34 34
21 20 20 20 20 20 20 21 21 22 23 24 26 27 29 29 30 31 32 33 34 35 36 37 38 39 40 41 42 42 41 41 40 39 38 38 37 36 36 36 36 36 36 36 35 35 35 35 34 34 34 34
20 20 21 21 21 21 21 22 22 24 25 26 28 29 30 31 32 33 33 34 35 36 37 38 39 40 41 42 43 43 42 42 41 41 40 40 39 39 38 38 38 38 37 37 37 37 36 36 35 35 34 34
21 21 21 21 21 22 22 23 24 25 26 27 29 30 31 32 33 34 35 36 37 38 39 41 42 43 43 43 44 44 43 43 43 42 42 41 41 41 40 39 40 40 39 39 39 39 39 38 38 37 36 35
21 21 21 21 22 22 23 24 25 26 28 29 30 31 32 34 35 36 37 39 40 42 44 45 45 46 46 45 45 45 44 43 43 43 42 42 42 41 41 40 40 41 40 40 40 41 41 41 40 40 39 38
21 21 21 22 22 23 24 25 27 28 29 30 32 33 34 36 37 39 41 43 45 46 47 48 48 48 47 47 46 46 45 44 44 43 43 43 43 42 41 41 41 41 41 40 41 41 41 41 41 41 41 40
21 21 22 22 23 24 25 26 27 29 30 32 33 35 37 39 41 42 44 46 47 48 49 49 49 48 48 48 47 47 46 45 45 44 43 43 43 42 42 41 41 41 41 40 41 41 41 41 41 41 41 41
21 22 22 23 24 25 26 27 29 30 32 34 36 38 40 42 43 44 46 47 49 49 49 49 49 48 48 48 48 47 47 46 45 44 43 43 43 42 42 42 41 42 41 41 41 41 41 40 40 40 40 40
21 22 23 24 25 26 28 29 31 32 34 36 38 40 42 43 44 46 47 49 50 50 49 49 49 48 48 49 49 48 47 46 45 44 44 43 43 43 43 43 42 42 42 41 41 41 41 40 40 40 40 40
21 22 23 25 26 28 30 32 33 35 36 38 40 42 43 44 46 47 49 50 51 50 50 49 49 49 49 49 49 48 47 46 45 45 45 44 45 44 43 43 42 42 43 42 41 41 41 41 41 41 40 40
22 24 25 27 28 30 31 33 35 37 38 40 41 43 44 46 47 49 50 51 51 51 50 49 49 48 48 48 48 48 47 46 45 45 45 45 45 46 45 44 43 43 44 44 43 42 42 42 42 42 41 41
25 26 28 29 30 31 33 34 36 38 40 41 43 44 46 48 49 50 50 51 51 50 49 48 48 47 47 48 48 47 47 46 46 46 46 46 46 47 47 46 45 45 45 46 45 44 43 43 44 43 42 42
28 29 30 31 32 33 34 36 37 39 42 44 45 46 47 48 48 49 49 49 49 48 48 47 47 47 47 48 48 48 47 47 47 47 48 48 47 48 49 48 47 48 48 48 47 45 45 45 45 44 44 44
30 30 32 33 34 35 36 38 40 42 44 46 47 47 47 47 48 48 47 47 47 47 47 47 47 47 47 48 48 49 48 48 48 48 49 49 49 49 50 50 49 50 50 50 49 48 47 47 46 45 45 44
32 33 34 35 36 38 39 41 43 45 46 47 47 47 47 47 48 48 48 46 46 46 46 46 46 47 47 47 48 49 49 49 49 49 49 50 51 51 51 51 51 51 52 52 52 51 50 48 47 47 47 45
34 36 37 39 40 41 42 44 46 47 47 47 47 46 47 47 48 49 49 48 47 47 47 47 47 47 46 46 47 48 49 49 50 50 51 51 52 52 53 53 52 53 54 54 54 54 53 50 48 48 48 47
37 39 40 42 43 45 46 47 47 47 47 47 46 46 46 47 48 49 50 49 49 49 48 48 48 47 47 46 47 48 48 48 49 50 51 52 53 53 54 54 54 54 55 56 56 56 56 54 52 49 47 48
40 41 42 44 45 47 48 48 47 46 46 45 46 46 46 47 49 50 50 50 50 50 50 49 49 49 48 47 47 48 48 48 48 49 50 52 54 54 55 56 55 55 56 57 57 58 58 57 56 53 50 49
42 44 45 47 48 48 48 48 47 47 46 46 47 48 49 49 49 50 51 50 50 50 50 50 50 50 49 49 48 49 49 49 48 49 49 51 53 55 56 57 57 57 56 57 57 58 58 58 58 57 54 53
45 46 48 49 50 51 51 51 50 50 51 51 51 51 50 49 48 48 48 48 48 49 49 50 49 50 49 49 49 49 50 50 50 49 49 50 52 54 56 57 59 59 57 57 58 58 58 58 59 59 57 56
47 48 49 49 50 51 52 52 52 53 53 53 52 51 49 47 46 45 45 45 46 47 47 47 48 48 48 48 48 48 49 50 50 50 50 50 52 54 55 57 59 59 58 59 59 58 57 58 58 59 58 58
Wind_Direction
278 279 281 281 281 280 278 278 277 276 276 278 279 281 284 287 289 291 292 293 294 294 295 295 295 294 293 292 290 289 288 287 287 287 286 285 283 281 280 279 278 277 276 275 274 273 271 270 268 267 266 264
277 279 280 280 279 277 275 274 274 275 277 279 281 284 287 289 291 292 294 295 296 297 298 300 300 300 299 298 296 294 292 290 288 287 287 286 285 284 282 280 279 277 276 275 274 274 272 271 269 268 267 265
275 278 278 277 276 273 272 272 273 275 277 279 282 284 286 288 291 293 295 296 297 299 300 301 301 301 300 299 298 297 296 294 292 290 288 287 286 285 284 282 281 279 277 275 274 274 273 272 270 269 268 266
273 275 275 273 271 269 269 270 271 273 275 277 279 281 283 286 289 292 295 297 299 301 302 303 303 302 301 300 298 297 296 294 294 292 291 290 288 287 286 284 282 280 279 277 275 274 273 272 271 270 269 267
272 272 270 268 265 265 267 268 269 271 272 273 274 276 280 284 287 292 296 299 301 302 303 305 305 305 304 302 300 298 295 293 292 291 291 290 289 288 287 286 283 281 279 278 277 275 274 273 272 271 270 268
272 270 266 263 263 264 265 266 267 269 269 269 270 273 277 283 288 293 297 300 301 303 304 305 306 306 306 305 304 302 299 295 292 290 289 288 288 287 287 286 284 282 280 278 277 276 275 274 272 271 270 269
271 268 264 262 262 263 264 265 266 266 266 267 269 273 279 285 291 295 298 300 302 303 305 306 307 306 306 306 306 304 303 299 295 291 288 287 286 286 285 285 285 283 282 279 277 275 274 273 273 272 271 270
268 266 263 262 263 263 264 265 264 264 265 268 271 277 283 289 293 297 299 301 303 304 305 306 306 306 306 306 306 305 304 302 299 295 291 288 287 285 285 284 284 283 282 281 278 276 274 272 272 271 271 270
265 264 263 263 263 263 264 264 263 265 268 271 276 281 287 292 296 299 301 303 304 305 305 306 305 304 304 304 304 304 303 302 300 297 294 291 288 286 285 284 284 283 282 282 280 278 276 273 271 270 270 270
262 263 265 265 265 264 264 264 264 267 270 274 279 284 289 294 297 300 302 304 305 306 306 306 305 303 302 301 301 301 301 301 299 297 294 291 289 287 286 284 284 283 281 281 281 280 278 276 273 271 270 269
263 266 268 267 265 264 263 263 265 268 272 276 281 285 289 293 296 299 301 303 305 306 307 307 306 304 302 300 300 299 299 299 298 296 293 290 288 286 285 284 283 282 281 280 279 279 279 277 276 273 271 269
264 265 264 262 260 260 260 262 266 270 274 279 282 286 290 293 295 298 301 303 305 306 308 308 308 307 304 302 300 299 298 297 296 294 292 290 287 285 283 282 281 281 280 280 279 278 278 277 277 275 273 271
258 257 256 256 257 259 261 264 268 272 276 280 284 287 290 293 296 299 301 303 305 306 307 308 308 308 307 304 302 299 298 297 295 293 291 289 287 285 283 281 280 279 278 278 278 277 277 276 276 275 274 272
254 254 253 254 256 259 263 267 271 274 279 283 286 289 291 294 298 300 302 304 305 306 307 307 307 307 307 305 302 300 298 296 295 293 291 289 287 285 283 281 280 278 277 276 276 275 275 275 274 274 273 272
253 252 252 254 257 262 266 270 274 278 282 286 288 291 294 297 300 302 304 305 306 306 307 307 306 306 305 304 302 300 299 297 295 293 291 290 287 286 284 282 281 279 278 276 275 274 273 273 273 272 271 271
251 251 254 257 262 266 270 274 278 282 285 289 291 294 297 300 302 304 305 305 306 306 306 306 306 305 304 303 301 300 299 297 295 294 292 290 288 286 284 283 281 280 279 277 276 275 274 272 272 271 271 270
251 254 257 262 266 271 275 279 283 286 289 292 294 297 299 302 304 305 306 306 307 306 306 305 305 304 303 302 301 300 299 298 296 294 292 289 287 286 284 283 282 280 279 278 277 275 274 273 272 271 270 270
255 259 263 268 272 276 280 284 287 290 292 295 297 299 301 303 305 306 307 308 308 307 306 305 304 303 302 301 300 300 299 298 296 294 292 289 287 286 284 283 282 280 279 278 276 275 274 273 272 271 270 270
262 267 272 276 279 282 285 287 289 291 293 295 297 300 302 303 304 305 307 308 308 307 306 305 304 303 302 301 300 300 299 298 296 293 291 289 287 285 284 283 282 281 279 277 276 275 274 273 272 271 270 270
269 274 278 281 285 287 289 290 291 292 294 296 298 300 301 302 303 303 305 307 307 306 306 305 304 303 302 301 300 299 298 297 295 293 291 289 288 286 285 283 282 281 280 278 276 275 275 274 273 271 271 270
271 274 278 282 286 289 291 293 294 296 297 298 299 300 301 302 302 303 304 305 305 305 305 305 304 303 302 301 300 299 298 296 294 292 290 289 288 287 286 284 283 281 280 279 278 277 276 275 274 273 272 272
271 274 278 281 284 288 291 294 297 299 301 301 301 301 301 301 302 302 303 303 303 303 304 304 303 303 302 301 300 299 297 295 293 291 289 288 287 287 286 285 284 282 281 280 279 278 277 276 275 274 274 273
274 277 280 283 285 289 293 296 298 300 301 301 300 300 302 303 303 303 303 302 302 302 303 303 303 303 302 301 300 299 298 296 293 291 290 288 287 286 285 285 284 283 281 280 279 278 277 276 276 275 274 274
278 281 284 286 289 292 295 297 299 300 300 300 301 302 303 304 304 303 302 301 301 302 303 303 303 303 303 302 301 300 298 297 294 292 290 289 287 286 285 284 283 282 281 280 279 278 277 276 276 275 274 274
283 285 287 290 293 295 297 298 299 301 302 302 303 304 304 304 302 301 301 300 301 301 302 302 302 302 301 301 300 299 298 297 295 293 292 290 288 287 285 284 283 282 281 280 279 278 277 276 276 276 275 274
289 291 293 295 296 297 299 300 301 302 303 303 304 304 304 303 301 300 300 300 300 301 301 300 300 300 300 299 298 298 297 296 295 294 293 291 289 288 286 285 284 283 282 281 280 278 276 275 273 274 275 275
294 295 297 298 299 300 300 301 303 304 304 303 303 303 302 301 300 299 299 299 300 300 300 299 299 298 298 298 297 296 296 295 294 293 292 291 290 288 287 286 284 283 282 282 281 280 278 276 273 271 270 270
296 298 299 300 301 302 302 302 303 303 302 302 301 301 300 299 298 298 298 298 299 299 299 299 298 298 297 297 296 296 295 294 292 291 290 289 289 288 286 285 284 283 282 282 282 281 280 279 276 273 269 267
298 298 299 299 299 300 300 300 300 300 299 299 299 299 298 297 297 296 297 297 298 298 298 298 297 297 296 296 295 295 294 293 292 290 288 287 286 286 285 285 284 283 282 281 281 281 281 280 278 276 273 270
299 299 300 300 299 298 298 298 299 300 301 300 300 300 299 298 297 296 296 297 297 297 297 297 296 296 296 295 295 294 293 293 292 290 288 286 284 284 284 283 283 282 281 280 279 279 279 279 278 278 276 274
301 301 301 301 301 301 301 301 302 303 303 303 302 301 300 299 298 298 298 297 297 297 296 296 296 296 296 295 295 294 293 292 292 290 288 285 284 282 282 281 281 281 280 279 278 278 277 277 277 277 277 276